When you browse on this site, cookies collect data to enhance your experience and personalize the content and advertising you see.
Visit our Privacy Policy to learn more. By continuing to use the site, you agree to this use of cookies and data.
  • In Hungary
  • List of Countries
  • For 7 days
  • Water Temperature
  • Weather Map
  • News
  • Weather Widgets
  • user-avatar
    Login

    Hourly Weather Staroe Sandovo

    Today, 18 January, Saturday

    Time Temperature Precipitation Wind Pressure Humidity
    00:00 0°C° 0 mm 3 mps 745 mmHg 90%
    01:00 0°C° 0 mm 3 mps 745 mmHg 90%
    02:00 +1°C° 0 mm 2 mps 745 mmHg 92%
    03:00 -1°C° 0 mm 2 mps 745 mmHg 93%
    04:00 -1°C° 0 mm 2 mps 745 mmHg 93%
    05:00 -1°C° 0 mm 2 mps 745 mmHg 93%
    06:00 -2°C° 0 mm 2 mps 745 mmHg 94%
    07:00 -2°C° 0 mm 2 mps 745 mmHg 95%
    08:00 -3°C° 0 mm 2 mps 745 mmHg 96%
    09:00 -2°C° 0 mm 3 mps 745 mmHg 94%
    10:00 -2°C° 0 mm 3 mps 744 mmHg 91%
    11:00 -2°C° 0 mm 3 mps 744 mmHg 89%
    12:00 -1°C° 0 mm 3 mps 744 mmHg 87%
    13:00 -1°C° 0 mm 3 mps 743 mmHg 85%
    14:00 -1°C° 0 mm 3 mps 743 mmHg 84%
    15:00 -1°C° 0 mm 3 mps 743 mmHg 84%
    16:00 -2°C° 0 mm 4 mps 742 mmHg 84%
    17:00 -3°C° 0 mm 4 mps 742 mmHg 84%
    18:00 -3°C° 0 mm 4 mps 741 mmHg 81%
    19:00 -2°C° 0 mm 4 mps 741 mmHg 78%
    20:00 -2°C° 0 mm 4 mps 741 mmHg 75%
    21:00 -3°C° 0 mm 4 mps 741 mmHg 77%
    22:00 -3°C° 0 mm 4 mps 741 mmHg 78%
    23:00 -3°C° 0 mm 4 mps 741 mmHg 80%

    Tomorrow, 19 January, Sunday

    Time Temperature Precipitation Wind Pressure Humidity
    00:00 -3°C° 0 mm 4 mps 741 mmHg 82%
    01:00 -3°C° 0 mm 4 mps 742 mmHg 83%
    02:00 -3°C° 0 mm 4 mps 742 mmHg 84%
    03:00 -2°C° 0 mm 3 mps 742 mmHg 87%
    04:00 -2°C° 0 mm 3 mps 742 mmHg 89%
    05:00 -4°C° 0 mm 3 mps 742 mmHg 91%
    06:00 -2°C° 0 mm 3 mps 742 mmHg 91%
    07:00 -1°C° 0 mm 3 mps 743 mmHg 91%
    08:00 -1°C° 0 mm 3 mps 743 mmHg 90%
    09:00 0°C° 0 mm 3 mps 743 mmHg 89%
    10:00 -1°C° 0 mm 4 mps 743 mmHg 87%
    11:00 -1°C° 0 mm 4 mps 743 mmHg 86%
    12:00 -1°C° 0 mm 4 mps 743 mmHg 85%
    13:00 -1°C° 0 mm 4 mps 744 mmHg 83%
    14:00 -1°C° 0 mm 4 mps 744 mmHg 82%
    15:00 -1°C° 0 mm 4 mps 744 mmHg 83%
    16:00 -1°C° 0 mm 4 mps 744 mmHg 84%
    17:00 -1°C° 0 mm 4 mps 743 mmHg 85%
    18:00 -1°C° 0 mm 4 mps 743 mmHg 87%
    19:00 -2°C° 0 mm 4 mps 743 mmHg 89%
    20:00 -2°C° 0 mm 4 mps 743 mmHg 91%
    21:00 -1°C° 0.1 mm 5 mps 743 mmHg 93%
    22:00 -1°C° 0.1 mm 5 mps 743 mmHg 94%
    23:00 -1°C° 0.1 mm 5 mps 743 mmHg 96%

    Day after tomorrow, 20 January, Monday

    Time Temperature Precipitation Wind Pressure Humidity
    00:00 -1°C° 0.1 mm 5 mps 743 mmHg 96%
    01:00 -1°C° 0.1 mm 5 mps 742 mmHg 96%
    02:00 -1°C° 0.1 mm 5 mps 742 mmHg 96%
    03:00 -1°C° 0.3 mm 5 mps 743 mmHg 95%
    04:00 -2°C° 0.3 mm 5 mps 743 mmHg 94%
    05:00 -2°C° 0.3 mm 5 mps 743 mmHg 94%
    06:00 -2°C° 0 mm 5 mps 743 mmHg 92%
    07:00 -2°C° 0 mm 4 mps 743 mmHg 90%
    08:00 -3°C° 0 mm 4 mps 744 mmHg 88%
    09:00 -2°C° 0 mm 4 mps 744 mmHg 88%
    10:00 -2°C° 0 mm 4 mps 744 mmHg 87%
    11:00 -2°C° 0 mm 4 mps 744 mmHg 87%
    12:00 -2°C° 0.1 mm 4 mps 744 mmHg 87%
    13:00 -2°C° 0.1 mm 4 mps 743 mmHg 87%
    14:00 -2°C° 0.1 mm 5 mps 743 mmHg 87%
    15:00 -2°C° 0.1 mm 5 mps 743 mmHg 90%
    16:00 -2°C° 0.1 mm 5 mps 742 mmHg 92%
    17:00 -2°C° 0.1 mm 5 mps 742 mmHg 95%
    18:00 -2°C° 0.1 mm 5 mps 742 mmHg 95%
    19:00 -2°C° 0.1 mm 5 mps 741 mmHg 95%
    20:00 -4°C° 0.1 mm 5 mps 741 mmHg 95%
    21:00 -4°C° 0.2 mm 5 mps 741 mmHg 93%
    22:00 -4°C° 0.2 mm 5 mps 740 mmHg 92%
    23:00 -4°C° 0.2 mm 5 mps 740 mmHg 90%

    21 January, Tuesday

    Time Temperature Precipitation Wind Pressure Humidity
    00:00 -3°C° 0 mm 4 mps 739 mmHg 90%
    01:00 -2°C° 0 mm 4 mps 739 mmHg 89%
    02:00 -2°C° 0 mm 4 mps 738 mmHg 89%
    03:00 -2°C° 0.2 mm 4 mps 737 mmHg 91%
    04:00 -2°C° 0.2 mm 5 mps 736 mmHg 94%
    05:00 -2°C° 0.2 mm 5 mps 735 mmHg 97%
    06:00 -1°C° 0.5 mm 5 mps 734 mmHg 95%
    07:00 -2°C° 0.5 mm 6 mps 733 mmHg 92%
    08:00 -1°C° 0.5 mm 6 mps 732 mmHg 90%
    09:00 +1°C° 0.1 mm 6 mps 732 mmHg 89%
    10:00 +1°C° 0.1 mm 6 mps 731 mmHg 87%
    11:00 +2°C° 0.1 mm 7 mps 730 mmHg 86%
    12:00 +2°C° 0.2 mm 7 mps 730 mmHg 87%
    13:00 +2°C° 0.2 mm 6 mps 730 mmHg 87%
    14:00 +2°C° 0.2 mm 6 mps 729 mmHg 88%
    15:00 +2°C° 0.5 mm 6 mps 729 mmHg 88%
    16:00 +1°C° 0.5 mm 5 mps 728 mmHg 88%
    17:00 +1°C° 0.5 mm 5 mps 728 mmHg 88%
    18:00 0°C° 0.2 mm 4 mps 728 mmHg 88%
    19:00 0°C° 0.2 mm 4 mps 727 mmHg 89%
    20:00 -1°C° 0.2 mm 4 mps 727 mmHg 89%
    21:00 -1°C° 0.1 mm 4 mps 726 mmHg 88%
    22:00 -2°C° 0.1 mm 4 mps 725 mmHg 86%
    23:00 -2°C° 0.1 mm 4 mps 725 mmHg 85%

    22 January, Wednesday

    Time Temperature Precipitation Wind Pressure Humidity
    00:00 -3°C° 0 mm 4 mps 724 mmHg 86%
    01:00 -3°C° 0 mm 4 mps 724 mmHg 86%
    02:00 -5°C° 0 mm 5 mps 724 mmHg 87%
    03:00 -4°C° 0 mm 4 mps 723 mmHg 85%
    04:00 -4°C° 0 mm 4 mps 723 mmHg 83%
    05:00 -4°C° 0 mm 4 mps 722 mmHg 82%
    06:00 -5°C° 0 mm 5 mps 722 mmHg 80%
    07:00 -5°C° 0 mm 5 mps 722 mmHg 79%
    08:00 -5°C° 0 mm 5 mps 722 mmHg 77%
    09:00 -5°C° 0 mm 6 mps 722 mmHg 78%
    10:00 -5°C° 0 mm 6 mps 722 mmHg 78%
    11:00 -5°C° 0 mm 6 mps 722 mmHg 79%
    12:00 -5°C° 0.1 mm 6 mps 723 mmHg 81%
    13:00 -5°C° 0.1 mm 6 mps 723 mmHg 83%
    14:00 -5°C° 0.1 mm 6 mps 723 mmHg 84%
    15:00 -5°C° 0.1 mm 5 mps 724 mmHg 79%
    16:00 -6°C° 0.1 mm 5 mps 725 mmHg 74%
    17:00 -7°C° 0.1 mm 5 mps 725 mmHg 69%
    18:00 -8°C° 0 mm 5 mps 726 mmHg 69%
    19:00 -9°C° 0 mm 6 mps 726 mmHg 68%
    20:00 -9°C° 0 mm 6 mps 727 mmHg 68%
    21:00 -10°C° 0 mm 6 mps 727 mmHg 67%
    22:00 -10°C° 0 mm 6 mps 727 mmHg 66%
    23:00 -10°C° 0 mm 6 mps 727 mmHg 65%

    23 January, Thursday

    Time Temperature Precipitation Wind Pressure Humidity
    00:00 -10°C° 0 mm 6 mps 727 mmHg 65%
    01:00 -10°C° 0 mm 6 mps 728 mmHg 64%
    02:00 -11°C° 0 mm 6 mps 728 mmHg 64%
    03:00 -11°C° 0 mm 6 mps 728 mmHg 62%
    04:00 -11°C° 0 mm 6 mps 728 mmHg 60%
    05:00 -11°C° 0 mm 6 mps 728 mmHg 58%
    06:00 -11°C° 0 mm 6 mps 729 mmHg 59%
    07:00 -11°C° 0 mm 6 mps 729 mmHg 61%
    08:00 -11°C° 0 mm 6 mps 729 mmHg 62%
    09:00 -11°C° 0 mm 6 mps 729 mmHg 62%
    10:00 -11°C° 0 mm 6 mps 730 mmHg 62%
    11:00 -11°C° 0 mm 6 mps 730 mmHg 62%
    12:00 -11°C° 0 mm 6 mps 731 mmHg 64%
    13:00 -11°C° 0 mm 6 mps 731 mmHg 65%
    14:00 -11°C° 0 mm 6 mps 732 mmHg 67%
    15:00 -12°C° 0 mm 6 mps 733 mmHg 67%
    16:00 -12°C° 0 mm 6 mps 733 mmHg 68%
    17:00 -12°C° 0 mm 6 mps 734 mmHg 68%
    18:00 -12°C° 0 mm 5 mps 735 mmHg 70%
    19:00 -12°C° 0 mm 5 mps 735 mmHg 71%
    20:00 -13°C° 0 mm 5 mps 736 mmHg 73%
    21:00 -13°C° 0 mm 5 mps 736 mmHg 73%
    22:00 -12°C° 0 mm 4 mps 737 mmHg 73%
    23:00 -12°C° 0 mm 4 mps 737 mmHg 74%
    Show more